TimeEST,TemperatureF,Dew PointF,Humidity,Sea Level PressureIn,VisibilityMPH,Wind Direction,Wind SpeedMPH,Gust SpeedMPH,PrecipitationIn,Events,Conditions,WindDirDegrees,DateUTC
12:06 AM,-0.4,-5.8,78,30.01,2.5,North,3.5,-,N/A,,Mostly Cloudy,360,2013-01-24 05:06:00
12:22 AM,-0.4,-4.0,85,30.01,3.0,Calm,Calm,-,N/A,,Mostly Cloudy,0,2013-01-24 05:22:00
12:32 AM,-0.4,-4.0,85,30.00,2.5,Calm,Calm,-,0.00,Snow,Light Snow,0,2013-01-24 05:32:00
12:40 AM,-0.4,-4.0,85,30.00,9.0,Calm,Calm,-,0.00,,Overcast,0,2013-01-24 05:40:00
12:54 AM,-0.0,-4.0,83,30.11,9.0,Calm,Calm,-,0.00,,Overcast,0,2013-01-24 05:54:00
1:12 AM,1.4,-2.2,85,30.00,1.8,Calm,Calm,-,0.00,Snow,Light Snow,0,2013-01-24 06:12:00
1:22 AM,-0.4,-2.2,92,30.00,3.0,Calm,Calm,-,0.00,Snow,Light Snow,0,2013-01-24 06:22:00
1:54 AM,-0.0,-4.0,83,30.10,5.0,North,3.5,-,0.00,Snow,Light Snow,360,2013-01-24 06:54:00
2:01 AM,-0.4,-4.0,85,30.00,5.0,Calm,Calm,-,0.00,Snow,Light Snow,0,2013-01-24 07:01:00
2:31 AM,1.4,-2.2,85,30.00,2.5,Calm,Calm,-,0.00,Snow,Light Snow,0,2013-01-24 07:31:00
2:40 AM,1.4,-2.2,85,30.01,3.0,Calm,Calm,-,0.00,Snow,Light Snow,0,2013-01-24 07:40:00
2:54 AM,1.9,-0.9,88,30.11,5.0,Calm,Calm,-,0.00,Snow,Light Snow,0,2013-01-24 07:54:00
3:54 AM,1.9,-2.0,83,30.13,10.0,Calm,Calm,-,0.00,,Overcast,0,2013-01-24 08:54:00
4:21 AM,1.4,-2.2,85,30.04,10.0,North,3.5,-,N/A,,Overcast,360,2013-01-24 09:21:00
4:54 AM,1.9,-0.9,88,30.16,2.5,North,3.5,-,0.00,Snow,Light Snow,10,2013-01-24 09:54:00
5:14 AM,3.2,-0.4,85,30.07,3.0,NNE,3.5,-,0.00,Snow,Light Snow,20,2013-01-24 10:14:00
5:22 AM,3.2,-0.4,85,30.07,1.8,NNE,3.5,-,0.00,Snow,Light Snow,20,2013-01-24 10:22:00
5:29 AM,3.2,-0.4,85,30.07,3.0,NNE,3.5,-,0.00,Snow,Light Snow,20,2013-01-24 10:29:00
5:52 AM,3.2,-0.4,85,30.09,9.0,Calm,Calm,-,0.00,,Scattered Clouds,0,2013-01-24 10:52:00
5:54 AM,3.0,-0.9,84,30.19,8.0,Calm,Calm,-,0.00,,Scattered Clouds,0,2013-01-24 10:54:00
6:12 AM,1.4,-2.2,85,30.10,6.0,Calm,Calm,-,N/A,,Mostly Cloudy,0,2013-01-24 11:12:00
6:20 AM,1.4,-2.2,85,30.10,10.0,Calm,Calm,-,N/A,,Scattered Clouds,0,2013-01-24 11:20:00
6:54 AM,1.9,-2.0,83,30.24,10.0,Calm,Calm,-,N/A,,Scattered Clouds,0,2013-01-24 11:54:00
7:41 AM,1.4,-2.2,85,30.16,8.0,Calm,Calm,-,N/A,,Scattered Clouds,0,2013-01-24 12:41:00
7:54 AM,1.0,-2.0,87,30.28,8.0,Calm,Calm,-,N/A,,Partly Cloudy,0,2013-01-24 12:54:00
8:54 AM,5.0,3.0,92,30.32,9.0,Calm,Calm,-,N/A,,Clear,0,2013-01-24 13:54:00
9:54 AM,12.0,3.0,67,30.35,10.0,NNW,4.6,-,N/A,,Clear,330,2013-01-24 14:54:00
10:54 AM,15.1,3.0,59,30.39,10.0,NW,10.4,-,N/A,,Clear,320,2013-01-24 15:54:00
11:54 AM,16.0,1.9,54,30.40,10.0,NNW,11.5,19.6,N/A,,Partly Cloudy,330,2013-01-24 16:54:00
12:54 PM,18.0,3.9,54,30.40,10.0,NW,11.5,20.7,N/A,,Overcast,310,2013-01-24 17:54:00
1:54 PM,17.1,1.0,50,30.41,9.0,NW,13.8,21.9,0.00,,Overcast,310,2013-01-24 18:54:00
2:54 PM,18.0,-0.0,45,30.42,10.0,WNW,11.5,21.9,N/A,,Overcast,300,2013-01-24 19:54:00
3:54 PM,17.1,1.0,50,30.45,10.0,NW,11.5,18.4,N/A,,Clear,320,2013-01-24 20:54:00
4:54 PM,16.0,-2.0,45,30.47,10.0,NNW,15.0,19.6,N/A,,Clear,330,2013-01-24 21:54:00
5:54 PM,14.0,-2.9,47,30.50,10.0,NW,9.2,-,N/A,,Clear,310,2013-01-24 22:54:00
6:54 PM,12.9,-2.9,49,30.53,10.0,WNW,5.8,-,N/A,,Clear,300,2013-01-24 23:54:00
7:54 PM,10.9,-2.9,54,30.55,10.0,SW,3.5,-,N/A,,Clear,230,2013-01-25 00:54:00
8:54 PM,10.0,-2.9,56,30.54,10.0,West,5.8,-,N/A,,Clear,270,2013-01-25 01:54:00
9:54 PM,9.0,-2.0,61,30.52,10.0,WNW,4.6,-,N/A,,Clear,290,2013-01-25 02:54:00
11:54 PM,6.1,-2.9,67,30.52,10.0,WSW,3.5,-,N/A,,Clear,240,2013-01-25 04:54:00